Time,TemperatureF,DewpointF,PressureIn,WindDirection,WindDirectionDegrees,WindSpeedMPH,WindSpeedGustMPH,Humidity,HourlyPrecipIn,Conditions,Clouds,dailyrainin,SoftwareType,DateUTC
2013-04-12 00:00:00,37.7,32.7,29.67,West,266,6.0,6.0,82,0.00,,,0.00,Wunderground v.1.15,2013-04-12 05:00:00,
2013-04-12 00:05:00,37.7,32.7,29.67,WSW,252,6.0,6.0,82,0.00,,,0.00,Wunderground v.1.15,2013-04-12 05:05:00,
2013-04-12 00:10:00,37.6,32.9,29.67,WSW,257,6.0,6.0,83,0.00,,,0.00,Wunderground v.1.15,2013-04-12 05:10:00,
2013-04-12 00:20:00,37.6,32.9,29.67,WSW,240,7.0,7.0,83,0.00,,,0.00,Wunderground v.1.15,2013-04-12 05:20:00,
2013-04-12 00:25:00,37.6,32.6,29.67,West,261,7.0,7.0,82,0.00,,,0.00,Wunderground v.1.15,2013-04-12 05:25:00,
2013-04-12 00:35:00,37.6,32.9,29.67,WSW,240,6.0,7.0,83,0.00,,,0.00,Wunderground v.1.15,2013-04-12 05:35:00,
2013-04-12 00:40:00,37.5,32.8,29.68,WSW,249,6.0,6.0,83,0.00,,,0.00,Wunderground v.1.15,2013-04-12 05:40:00,
2013-04-12 00:45:00,37.5,32.5,29.68,SW,225,6.0,9.0,82,0.00,,,0.00,Wunderground v.1.15,2013-04-12 05:45:00,
2013-04-12 00:50:00,37.6,32.6,29.68,West,266,7.0,7.0,82,0.00,,,0.00,Wunderground v.1.15,2013-04-12 05:50:00,
2013-04-12 00:55:00,37.5,32.8,29.67,West,266,6.0,7.0,83,0.00,,,0.00,Wunderground v.1.15,2013-04-12 05:55:00,
2013-04-12 01:00:00,37.5,32.8,29.68,WSW,238,6.0,8.0,83,0.00,,,0.00,Wunderground v.1.15,2013-04-12 06:00:00,
2013-04-12 01:05:00,37.5,32.5,29.67,West,263,7.0,8.0,82,0.00,,,0.00,Wunderground v.1.15,2013-04-12 06:05:00,
2013-04-12 01:10:00,37.5,32.5,29.68,WSW,257,7.0,7.0,82,0.00,,,0.00,Wunderground v.1.15,2013-04-12 06:10:00,
2013-04-12 01:20:00,37.4,32.7,29.67,West,262,6.0,6.0,83,0.00,,,0.00,Wunderground v.1.15,2013-04-12 06:20:00,
2013-04-12 01:25:00,37.4,33.0,29.67,WSW,238,6.0,8.0,84,0.00,,,0.00,Wunderground v.1.15,2013-04-12 06:25:00,
2013-04-12 01:30:00,37.3,32.6,29.67,WSW,245,6.0,6.0,83,0.00,,,0.00,Wunderground v.1.15,2013-04-12 06:30:00,
2013-04-12 01:35:00,37.4,32.7,29.67,WSW,250,5.0,6.0,83,0.00,,,0.00,Wunderground v.1.15,2013-04-12 06:35:00,
2013-04-12 01:40:00,37.3,32.9,29.67,West,263,5.0,6.0,84,0.00,,,0.00,Wunderground v.1.15,2013-04-12 06:40:00,
2013-04-12 01:45:00,37.3,32.6,29.66,WSW,250,6.0,7.0,83,0.00,,,0.00,Wunderground v.1.15,2013-04-12 06:45:00,
2013-04-12 01:55:00,37.4,33.0,29.66,SW,235,7.0,7.0,84,0.00,,,0.00,Wunderground v.1.15,2013-04-12 06:55:00,
2013-04-12 02:00:00,37.3,32.6,29.66,WSW,249,6.0,7.0,83,0.00,,,0.00,Wunderground v.1.15,2013-04-12 07:00:00,
2013-04-12 02:05:00,37.4,32.7,29.66,WSW,246,6.0,7.0,83,0.00,,,0.00,Wunderground v.1.15,2013-04-12 07:05:00,
2013-04-12 02:10:00,37.3,32.9,29.66,West,260,6.0,6.0,84,0.00,,,0.00,Wunderground v.1.15,2013-04-12 07:10:00,
2013-04-12 02:15:00,37.3,32.9,29.66,WSW,238,6.0,6.0,84,0.00,,,0.00,Wunderground v.1.15,2013-04-12 07:15:00,
2013-04-12 02:20:00,37.4,33.0,29.66,SW,236,6.0,8.0,84,0.00,,,0.00,Wunderground v.1.15,2013-04-12 07:20:00,
2013-04-12 02:30:00,37.4,33.0,29.66,WSW,243,6.0,7.0,84,0.00,,,0.00,Wunderground v.1.15,2013-04-12 07:30:00,
2013-04-12 02:40:00,37.4,33.0,29.65,West,263,7.0,9.0,84,0.00,,,0.00,Wunderground v.1.15,2013-04-12 07:40:00,
2013-04-12 02:45:00,37.3,32.9,29.65,WSW,242,7.0,9.0,84,0.00,,,0.00,Wunderground v.1.15,2013-04-12 07:45:00,
2013-04-12 02:50:00,37.3,32.9,29.65,West,270,7.0,7.0,84,0.00,,,0.00,Wunderground v.1.15,2013-04-12 07:50:00,
2013-04-12 02:55:00,37.3,32.9,29.65,SW,235,7.0,12.0,84,0.00,,,0.00,Wunderground v.1.15,2013-04-12 07:55:00,
2013-04-12 03:00:00,37.3,33.2,29.65,SW,228,8.0,8.0,85,0.00,,,0.00,Wunderground v.1.15,2013-04-12 08:00:00,
2013-04-12 03:05:00,37.3,32.9,29.65,WSW,238,8.0,8.0,84,0.00,,,0.00,Wunderground v.1.15,2013-04-12 08:05:00,
2013-04-12 03:10:00,37.3,33.2,29.65,WSW,257,7.0,7.0,85,0.00,,,0.00,Wunderground v.1.15,2013-04-12 08:10:00,
2013-04-12 03:15:00,37.3,33.2,29.65,SW,226,6.0,10.0,85,0.00,,,0.00,Wunderground v.1.15,2013-04-12 08:15:00,
2013-04-12 03:20:00,37.3,33.2,29.65,SW,231,7.0,7.0,85,0.00,,,0.00,Wunderground v.1.15,2013-04-12 08:20:00,
2013-04-12 03:25:00,37.3,32.9,29.65,WSW,238,7.0,7.0,84,0.00,,,0.00,Wunderground v.1.15,2013-04-12 08:25:00,
2013-04-12 03:30:00,37.3,33.2,29.65,WSW,242,7.0,7.0,85,0.00,,,0.00,Wunderground v.1.15,2013-04-12 08:30:00,
2013-04-12 03:35:00,37.3,33.2,29.64,SW,233,7.0,7.0,85,0.00,,,0.00,Wunderground v.1.15,2013-04-12 08:35:00,
2013-04-12 03:40:00,37.3,33.2,29.65,SW,231,6.0,6.0,85,0.00,,,0.00,Wunderground v.1.15,2013-04-12 08:40:00,
2013-04-12 03:45:00,37.3,33.2,29.65,WSW,239,6.0,6.0,85,0.00,,,0.00,Wunderground v.1.15,2013-04-12 08:45:00,
2013-04-12 03:50:00,37.3,33.2,29.65,WSW,249,6.0,8.0,85,0.00,,,0.00,Wunderground v.1.15,2013-04-12 08:50:00,
2013-04-12 04:00:00,37.3,33.2,29.65,SW,231,7.0,7.0,85,0.00,,,0.00,Wunderground v.1.15,2013-04-12 09:00:00,
2013-04-12 04:05:00,37.3,33.2,29.65,WSW,240,7.0,7.0,85,0.00,,,0.00,Wunderground v.1.15,2013-04-12 09:05:00,
2013-04-12 04:15:00,37.3,33.2,29.64,WSW,250,7.0,8.0,85,0.00,,,0.00,Wunderground v.1.15,2013-04-12 09:15:00,
2013-04-12 04:20:00,37.3,33.2,29.65,WSW,248,8.0,8.0,85,0.00,,,0.00,Wunderground v.1.15,2013-04-12 09:20:00,
2013-04-12 04:25:00,37.3,33.5,29.65,SW,226,8.0,10.0,86,0.00,,,0.00,Wunderground v.1.15,2013-04-12 09:25:00,
2013-04-12 04:30:00,37.3,33.2,29.65,WSW,242,7.0,7.0,85,0.00,,,0.00,Wunderground v.1.15,2013-04-12 09:30:00,
2013-04-12 04:35:00,37.3,33.5,29.64,WSW,240,7.0,8.0,86,0.00,,,0.00,Wunderground v.1.15,2013-04-12 09:35:00,
2013-04-12 04:40:00,37.3,33.5,29.64,WSW,249,7.0,7.0,86,0.00,,,0.00,Wunderground v.1.15,2013-04-12 09:40:00,
2013-04-12 04:50:00,37.3,33.2,29.65,SW,223,7.0,8.0,85,0.00,,,0.00,Wunderground v.1.15,2013-04-12 09:50:00,
2013-04-12 04:55:00,37.3,33.5,29.64,WSW,240,8.0,8.0,86,0.00,,,0.00,Wunderground v.1.15,2013-04-12 09:55:00,
2013-04-12 05:00:00,37.3,33.5,29.64,WSW,248,8.0,8.0,86,0.00,,,0.00,Wunderground v.1.15,2013-04-12 10:00:00,
2013-04-12 05:05:00,37.3,33.5,29.64,WSW,238,7.0,8.0,86,0.00,,,0.00,Wunderground v.1.15,2013-04-12 10:05:00,
2013-04-12 05:10:00,37.3,33.5,29.64,WSW,243,8.0,10.0,86,0.00,,,0.00,Wunderground v.1.15,2013-04-12 10:10:00,
2013-04-12 05:20:00,37.3,33.5,29.64,SW,226,8.0,8.0,86,0.00,,,0.00,Wunderground v.1.15,2013-04-12 10:20:00,
2013-04-12 05:25:00,37.3,33.5,29.64,West,270,8.0,8.0,86,0.00,,,0.00,Wunderground v.1.15,2013-04-12 10:25:00,
2013-04-12 05:30:00,37.3,33.5,29.64,SW,231,8.0,8.0,86,0.00,,,0.00,Wunderground v.1.15,2013-04-12 10:30:00,
2013-04-12 05:40:00,37.3,33.8,29.64,West,263,8.0,8.0,87,0.00,,,0.00,Wunderground v.1.15,2013-04-12 10:40:00,
2013-04-12 05:45:00,37.2,33.4,29.64,WSW,255,8.0,8.0,86,0.00,,,0.00,Wunderground v.1.15,2013-04-12 10:45:00,
2013-04-12 05:50:00,37.2,33.7,29.64,SW,226,7.0,7.0,87,0.00,,,0.00,Wunderground v.1.15,2013-04-12 10:50:00,
2013-04-12 05:55:00,37.3,33.8,29.64,WSW,256,7.0,7.0,87,0.00,,,0.00,Wunderground v.1.15,2013-04-12 10:55:00,
2013-04-12 06:00:00,37.3,33.8,29.64,WSW,243,7.0,7.0,87,0.00,,,0.00,Wunderground v.1.15,2013-04-12 11:00:00,
2013-04-12 06:10:00,37.3,33.8,29.64,WSW,257,8.0,8.0,87,0.00,,,0.00,Wunderground v.1.15,2013-04-12 11:10:00,
2013-04-12 06:15:00,37.3,33.8,29.64,WSW,242,7.0,11.0,87,0.00,,,0.00,Wunderground v.1.15,2013-04-12 11:15:00,
2013-04-12 06:20:00,37.3,34.1,29.64,SW,228,8.0,10.0,88,0.00,,,0.00,Wunderground v.1.15,2013-04-12 11:20:00,
2013-04-12 06:30:00,37.2,34.3,29.65,WSW,242,9.0,9.0,89,0.00,,,0.00,Wunderground v.1.15,2013-04-12 11:30:00,
2013-04-12 06:35:00,37.2,34.3,29.65,WSW,246,8.0,9.0,89,0.00,,,0.00,Wunderground v.1.15,2013-04-12 11:35:00,
2013-04-12 06:40:00,37.2,34.3,29.65,SW,235,8.0,9.0,89,0.00,,,0.00,Wunderground v.1.15,2013-04-12 11:40:00,
2013-04-12 06:45:00,37.3,34.4,29.65,WSW,245,9.0,9.0,89,0.00,,,0.00,Wunderground v.1.15,2013-04-12 11:45:00,
2013-04-12 06:50:00,37.3,34.1,29.65,WSW,249,8.0,8.0,88,0.00,,,0.00,Wunderground v.1.15,2013-04-12 11:50:00,
2013-04-12 06:55:00,37.4,34.2,29.65,WSW,238,7.0,8.0,88,0.00,,,0.00,Wunderground v.1.15,2013-04-12 11:55:00,
2013-04-12 07:00:00,37.5,34.3,29.66,SW,231,8.0,8.0,88,0.00,,,0.00,Wunderground v.1.15,2013-04-12 12:00:00,
2013-04-12 07:05:00,37.6,34.1,29.66,SW,228,8.0,8.0,87,0.00,,,0.00,Wunderground v.1.15,2013-04-12 12:05:00,
2013-04-12 07:10:00,37.7,34.2,29.66,SW,226,8.0,8.0,87,0.00,,,0.00,Wunderground v.1.15,2013-04-12 12:10:00,
2013-04-12 07:15:00,37.7,34.2,29.66,WSW,245,9.0,9.0,87,0.00,,,0.00,Wunderground v.1.15,2013-04-12 12:15:00,
2013-04-12 07:20:00,37.7,34.5,29.66,SW,229,9.0,12.0,88,0.00,,,0.00,Wunderground v.1.15,2013-04-12 12:20:00,
2013-04-12 07:30:00,37.8,34.6,29.67,SW,225,11.0,11.0,88,0.00,,,0.00,Wunderground v.1.15,2013-04-12 12:30:00,
2013-04-12 07:35:00,37.9,34.4,29.67,WSW,248,12.0,12.0,87,0.00,,,0.00,Wunderground v.1.15,2013-04-12 12:35:00,
2013-04-12 07:40:00,37.9,34.7,29.67,SW,236,11.0,11.0,88,0.00,,,0.00,Wunderground v.1.15,2013-04-12 12:40:00,
2013-04-12 07:45:00,37.9,34.7,29.67,SW,226,10.0,11.0,88,0.00,,,0.00,Wunderground v.1.15,2013-04-12 12:45:00,
2013-04-12 07:50:00,38.0,34.8,29.68,SW,231,10.0,11.0,88,0.00,,,0.00,Wunderground v.1.15,2013-04-12 12:50:00,
2013-04-12 07:55:00,38.0,34.5,29.68,WSW,255,11.0,11.0,87,0.00,,,0.00,Wunderground v.1.15,2013-04-12 12:55:00,
2013-04-12 08:00:00,38.1,34.9,29.68,WSW,238,11.0,11.0,88,0.00,,,0.00,Wunderground v.1.15,2013-04-12 13:00:00,
2013-04-12 08:05:00,38.1,34.9,29.68,WSW,243,10.0,11.0,88,0.00,,,0.00,Wunderground v.1.15,2013-04-12 13:05:00,
2013-04-12 08:10:00,38.1,34.6,29.68,SW,235,10.0,13.0,87,0.00,,,0.00,Wunderground v.1.15,2013-04-12 13:10:00,
2013-04-12 08:15:00,38.1,34.6,29.68,SW,219,10.0,13.0,87,0.00,,,0.00,Wunderground v.1.15,2013-04-12 13:15:00,
2013-04-12 08:20:00,38.2,34.7,29.68,SW,236,10.0,10.0,87,0.00,,,0.00,Wunderground v.1.15,2013-04-12 13:20:00,
2013-04-12 08:25:00,38.1,34.6,29.68,SW,225,9.0,14.0,87,0.00,,,0.00,Wunderground v.1.15,2013-04-12 13:25:00,
2013-04-12 08:30:00,38.2,34.7,29.68,SSW,207,10.0,10.0,87,0.00,,,0.00,Wunderground v.1.15,2013-04-12 13:30:00,
2013-04-12 08:40:00,38.3,34.5,29.68,SW,235,10.0,10.0,86,0.00,,,0.00,Wunderground v.1.15,2013-04-12 13:40:00,
2013-04-12 08:45:00,38.3,34.5,29.69,WSW,245,10.0,10.0,86,0.00,,,0.00,Wunderground v.1.15,2013-04-12 13:45:00,
2013-04-12 08:50:00,38.3,34.2,29.68,SW,228,9.0,10.0,85,0.00,,,0.00,Wunderground v.1.15,2013-04-12 13:50:00,
2013-04-12 08:55:00,38.3,34.2,29.69,SW,233,11.0,11.0,85,0.00,,,0.00,Wunderground v.1.15,2013-04-12 13:55:00,
2013-04-12 09:00:00,38.4,34.9,29.69,WSW,238,10.0,11.0,87,0.00,,,0.00,Wunderground v.1.15,2013-04-12 14:00:00,
2013-04-12 09:05:00,38.5,35.0,29.69,SW,235,9.0,11.0,87,0.00,,,0.00,Wunderground v.1.15,2013-04-12 14:05:00,
2013-04-12 09:10:00,38.5,35.0,29.69,WSW,255,10.0,10.0,87,0.00,,,0.00,Wunderground v.1.15,2013-04-12 14:10:00,
2013-04-12 09:15:00,38.5,34.7,29.69,WSW,238,9.0,11.0,86,0.00,,,0.00,Wunderground v.1.15,2013-04-12 14:15:00,
2013-04-12 09:20:00,38.4,34.9,29.69,WSW,248,10.0,12.0,87,0.00,,,0.00,Wunderground v.1.15,2013-04-12 14:20:00,
2013-04-12 09:25:00,38.3,35.3,29.70,SW,229,10.0,12.0,89,0.00,,,0.00,Wunderground v.1.15,2013-04-12 14:25:00,
2013-04-12 09:35:00,38.2,35.2,29.70,WSW,245,10.0,16.0,89,0.00,,,0.00,Wunderground v.1.15,2013-04-12 14:35:00,
2013-04-12 09:40:00,38.1,35.4,29.70,SW,226,10.0,12.0,90,0.00,,,0.00,Wunderground v.1.15,2013-04-12 14:40:00,
2013-04-12 09:45:00,37.9,35.2,29.70,West,265,9.0,12.0,90,0.00,,,0.00,Wunderground v.1.15,2013-04-12 14:45:00,
2013-04-12 09:50:00,37.9,35.8,29.70,WSW,245,9.0,9.0,92,0.00,,,0.00,Wunderground v.1.15,2013-04-12 14:50:00,
2013-04-12 09:55:00,37.7,35.6,29.70,WSW,240,10.0,11.0,92,0.00,,,0.00,Wunderground v.1.15,2013-04-12 14:55:00,
2013-04-12 10:00:00,37.6,35.5,29.70,West,266,10.0,10.0,92,0.00,,,0.00,Wunderground v.1.15,2013-04-12 15:00:00,
2013-04-12 10:05:00,37.7,35.9,29.70,WSW,255,8.0,10.0,93,0.00,,,0.00,Wunderground v.1.15,2013-04-12 15:05:00,
2013-04-12 10:10:00,37.7,35.6,29.71,WSW,255,7.0,9.0,92,0.00,,,0.00,Wunderground v.1.15,2013-04-12 15:10:00,
2013-04-12 10:15:00,37.8,35.7,29.71,SSW,212,8.0,10.0,92,0.00,,,0.00,Wunderground v.1.15,2013-04-12 15:15:00,
2013-04-12 10:25:00,37.7,35.9,29.71,SW,235,8.0,11.0,93,0.00,,,0.00,Wunderground v.1.15,2013-04-12 15:25:00,
2013-04-12 10:30:00,37.7,35.9,29.71,WSW,243,9.0,9.0,93,0.00,,,0.00,Wunderground v.1.15,2013-04-12 15:30:00,
2013-04-12 10:35:00,37.8,36.0,29.72,SW,229,10.0,10.0,93,0.00,,,0.00,Wunderground v.1.15,2013-04-12 15:35:00,
2013-04-12 10:40:00,37.8,36.0,29.72,SW,231,10.0,12.0,93,0.00,,,0.00,Wunderground v.1.15,2013-04-12 15:40:00,
2013-04-12 10:45:00,37.9,36.1,29.72,SW,231,10.0,12.0,93,0.00,,,0.00,Wunderground v.1.15,2013-04-12 15:45:00,
2013-04-12 10:55:00,38.1,36.0,29.72,WSW,252,10.0,10.0,92,0.00,,,0.00,Wunderground v.1.15,2013-04-12 15:55:00,
2013-04-12 11:00:00,38.2,35.8,29.73,SW,227,9.0,9.0,91,0.00,,,0.00,Wunderground v.1.15,2013-04-12 16:00:00,
2013-04-12 11:10:00,38.4,36.0,29.73,WNW,285,9.0,9.0,91,0.00,,,0.00,Wunderground v.1.15,2013-04-12 16:10:00,
2013-04-12 11:20:00,38.8,36.4,29.73,West,273,9.0,9.0,91,0.00,,,0.00,Wunderground v.1.15,2013-04-12 16:20:00,
2013-04-12 11:25:00,38.9,36.5,29.73,WSW,250,9.0,10.0,91,0.00,,,0.00,Wunderground v.1.15,2013-04-12 16:25:00,
2013-04-12 11:30:00,39.1,36.4,29.73,WSW,255,9.0,12.0,90,0.00,,,0.00,Wunderground v.1.15,2013-04-12 16:30:00,
2013-04-12 11:35:00,39.3,36.6,29.74,WSW,249,10.0,12.0,90,0.00,,,0.00,Wunderground v.1.15,2013-04-12 16:35:00,
2013-04-12 11:40:00,39.5,36.8,29.74,WSW,238,9.0,10.0,90,0.00,,,0.00,Wunderground v.1.15,2013-04-12 16:40:00,
2013-04-12 11:45:00,39.5,36.8,29.74,WSW,253,10.0,10.0,90,0.00,,,0.00,Wunderground v.1.15,2013-04-12 16:45:00,
2013-04-12 11:50:00,39.6,36.9,29.74,WSW,241,11.0,11.0,90,0.00,,,0.00,Wunderground v.1.15,2013-04-12 16:50:00,
2013-04-12 11:55:00,39.9,37.5,29.74,WSW,252,9.0,11.0,91,0.00,,,0.00,Wunderground v.1.15,2013-04-12 16:55:00,
2013-04-12 12:00:00,40.0,37.0,29.74,WSW,248,8.0,12.0,89,0.00,,,0.00,Wunderground v.1.15,2013-04-12 17:00:00,
2013-04-12 12:10:00,40.1,36.8,29.75,WSW,257,10.0,11.0,88,0.00,,,0.00,Wunderground v.1.15,2013-04-12 17:10:00,
2013-04-12 12:15:00,40.2,36.9,29.75,WSW,257,10.0,11.0,88,0.00,,,0.00,Wunderground v.1.15,2013-04-12 17:15:00,
2013-04-12 12:20:00,40.3,37.0,29.75,West,266,9.0,11.0,88,0.00,,,0.00,Wunderground v.1.15,2013-04-12 17:20:00,
2013-04-12 12:25:00,40.4,37.4,29.75,WSW,242,9.0,11.0,89,0.00,,,0.00,Wunderground v.1.15,2013-04-12 17:25:00,
2013-04-12 12:30:00,40.3,37.0,29.75,SW,221,9.0,10.0,88,0.00,,,0.00,Wunderground v.1.15,2013-04-12 17:30:00,
2013-04-12 12:35:00,40.2,36.9,29.76,WSW,249,10.0,10.0,88,0.00,,,0.00,Wunderground v.1.15,2013-04-12 17:35:00,
2013-04-12 12:40:00,40.3,37.0,29.76,West,263,10.0,10.0,88,0.00,,,0.00,Wunderground v.1.15,2013-04-12 17:40:00,
2013-04-12 12:45:00,40.5,37.5,29.76,WSW,257,9.0,11.0,89,0.00,,,0.00,Wunderground v.1.15,2013-04-12 17:45:00,
2013-04-12 12:50:00,40.7,37.4,29.76,WSW,245,9.0,9.0,88,0.00,,,0.00,Wunderground v.1.15,2013-04-12 17:50:00,
2013-04-12 12:55:00,40.8,37.2,29.76,SW,236,10.0,16.0,87,0.00,,,0.00,Wunderground v.1.15,2013-04-12 17:55:00,
2013-04-12 13:00:00,40.8,37.2,29.77,WSW,250,11.0,14.0,87,0.00,,,0.00,Wunderground v.1.15,2013-04-12 18:00:00,
2013-04-12 13:05:00,40.8,36.9,29.77,WSW,244,11.0,17.0,86,0.00,,,0.00,Wunderground v.1.15,2013-04-12 18:05:00,
2013-04-12 13:10:00,40.9,37.0,29.77,WSW,237,11.0,11.0,86,0.00,,,0.00,Wunderground v.1.15,2013-04-12 18:10:00,
2013-04-12 13:20:00,40.9,37.3,29.77,WSW,249,10.0,10.0,87,0.00,,,0.00,Wunderground v.1.15,2013-04-12 18:20:00,
2013-04-12 13:25:00,41.0,37.4,29.77,SW,235,9.0,10.0,87,0.00,,,0.00,Wunderground v.1.15,2013-04-12 18:25:00,
2013-04-12 14:30:00,41.9,36.5,29.80,WSW,257,11.0,11.0,81,0.00,,,0.00,Wunderground v.1.15,2013-04-12 19:30:00,
2013-04-12 14:35:00,42.0,36.9,29.80,West,277,10.0,11.0,82,0.00,,,0.00,Wunderground v.1.15,2013-04-12 19:35:00,
2013-04-12 14:40:00,41.9,36.5,29.80,WSW,250,9.0,9.0,81,0.00,,,0.00,Wunderground v.1.15,2013-04-12 19:40:00,
2013-04-12 14:45:00,41.8,36.4,29.81,WSW,246,10.0,10.0,81,0.00,,,0.00,Wunderground v.1.15,2013-04-12 19:45:00,
2013-04-12 14:50:00,41.9,36.8,29.81,SW,233,9.0,10.0,82,0.00,,,0.00,Wunderground v.1.15,2013-04-12 19:50:00,
2013-04-12 14:55:00,41.9,35.9,29.81,WSW,253,9.0,10.0,79,0.00,,,0.00,Wunderground v.1.15,2013-04-12 19:55:00,
2013-04-12 15:00:00,41.8,36.1,29.81,West,264,10.0,10.0,80,0.00,,,0.00,Wunderground v.1.15,2013-04-12 20:00:00,
2013-04-12 15:05:00,41.8,36.1,29.81,West,267,9.0,10.0,80,0.00,,,0.00,Wunderground v.1.15,2013-04-12 20:05:00,
2013-04-12 15:10:00,41.8,35.8,29.81,SW,231,7.0,7.0,79,0.00,,,0.00,Wunderground v.1.15,2013-04-12 20:10:00,
2013-04-12 15:15:00,42.0,36.0,29.82,West,260,7.0,7.0,79,0.00,,,0.00,Wunderground v.1.15,2013-04-12 20:15:00,
2013-04-12 15:20:00,42.2,35.8,29.82,WSW,238,7.0,12.0,78,0.00,,,0.00,Wunderground v.1.15,2013-04-12 20:20:00,
2013-04-12 15:25:00,42.1,35.7,29.82,West,275,7.0,12.0,78,0.00,,,0.00,Wunderground v.1.15,2013-04-12 20:25:00,
2013-04-12 15:30:00,42.2,36.2,29.82,SW,217,7.0,9.0,79,0.00,,,0.00,Wunderground v.1.15,2013-04-12 20:30:00,
2013-04-12 15:40:00,42.1,35.7,29.83,WSW,253,6.0,7.0,78,0.00,,,0.00,Wunderground v.1.15,2013-04-12 20:40:00,
2013-04-12 15:45:00,42.1,36.1,29.83,WSW,250,5.0,10.0,79,0.00,,,0.00,Wunderground v.1.15,2013-04-12 20:45:00,
2013-04-12 15:50:00,42.1,35.4,29.83,West,281,6.0,6.0,77,0.00,,,0.00,Wunderground v.1.15,2013-04-12 20:50:00,
2013-04-12 15:55:00,42.2,36.2,29.83,WNW,290,6.0,6.0,79,0.00,,,0.00,Wunderground v.1.15,2013-04-12 20:55:00,
2013-04-12 16:00:00,42.3,35.9,29.83,WSW,252,5.0,5.0,78,0.00,,,0.00,Wunderground v.1.15,2013-04-12 21:00:00,
2013-04-12 16:05:00,42.3,35.9,29.83,WSW,238,5.0,5.0,78,0.00,,,0.00,Wunderground v.1.15,2013-04-12 21:05:00,
2013-04-12 16:10:00,42.4,35.7,29.83,NW,307,5.0,5.0,77,0.00,,,0.00,Wunderground v.1.15,2013-04-12 21:10:00,
2013-04-12 16:15:00,42.5,36.1,29.83,WNW,294,5.0,5.0,78,0.00,,,0.00,Wunderground v.1.15,2013-04-12 21:15:00,
2013-04-12 16:20:00,42.5,35.8,29.83,West,269,5.0,5.0,77,0.00,,,0.00,Wunderground v.1.15,2013-04-12 21:20:00,
2013-04-12 16:25:00,42.5,35.5,29.83,West,263,6.0,6.0,76,0.00,,,0.00,Wunderground v.1.15,2013-04-12 21:25:00,
2013-04-12 16:30:00,42.8,35.8,29.83,NW,312,5.0,5.0,76,0.00,,,0.00,Wunderground v.1.15,2013-04-12 21:30:00,
2013-04-12 16:35:00,43.1,35.4,29.83,WNW,290,6.0,6.0,74,0.00,,,0.00,Wunderground v.1.15,2013-04-12 21:35:00,
2013-04-12 16:40:00,43.6,36.2,29.84,NW,309,6.0,6.0,75,0.00,,,0.00,Wunderground v.1.15,2013-04-12 21:40:00,
2013-04-12 16:45:00,44.1,36.0,29.84,SW,226,6.0,6.0,73,0.00,,,0.00,Wunderground v.1.15,2013-04-12 21:45:00,
2013-04-12 16:50:00,44.2,35.0,29.84,SW,222,6.0,8.0,70,0.00,,,0.00,Wunderground v.1.15,2013-04-12 21:50:00,
2013-04-12 16:55:00,43.8,35.4,29.84,WNW,297,6.0,8.0,72,0.00,,,0.00,Wunderground v.1.15,2013-04-12 21:55:00,
2013-04-12 17:00:00,43.6,35.5,29.85,NW,314,6.0,6.0,73,0.00,,,0.00,Wunderground v.1.15,2013-04-12 22:00:00,
2013-04-12 17:10:00,43.2,35.8,29.85,West,274,5.0,5.0,75,0.00,,,0.00,Wunderground v.1.15,2013-04-12 22:10:00,
2013-04-12 17:15:00,42.9,35.5,29.85,WSW,246,4.0,5.0,75,0.00,,,0.00,Wunderground v.1.15,2013-04-12 22:15:00,
2013-04-12 17:20:00,42.7,35.7,29.85,West,265,4.0,4.0,76,0.00,,,0.00,Wunderground v.1.15,2013-04-12 22:20:00,
2013-04-12 17:25:00,42.5,35.5,29.86,West,277,4.0,7.0,76,0.00,,,0.00,Wunderground v.1.15,2013-04-12 22:25:00,
2013-04-12 17:30:00,42.5,35.1,29.86,West,259,5.0,5.0,75,0.00,,,0.00,Wunderground v.1.15,2013-04-12 22:30:00,
2013-04-12 17:35:00,42.4,35.4,29.86,WSW,238,4.0,5.0,76,0.00,,,0.00,Wunderground v.1.15,2013-04-12 22:35:00,
2013-04-12 17:40:00,42.3,35.3,29.86,WNW,290,4.0,4.0,76,0.00,,,0.00,Wunderground v.1.15,2013-04-12 22:40:00,
2013-04-12 17:50:00,42.2,35.2,29.87,West,276,4.0,4.0,76,0.00,,,0.00,Wunderground v.1.15,2013-04-12 22:50:00,
2013-04-12 17:55:00,42.2,35.5,29.87,WNW,295,5.0,5.0,77,0.00,,,0.00,Wunderground v.1.15,2013-04-12 22:55:00,
2013-04-12 18:00:00,42.2,35.5,29.87,SW,235,4.0,4.0,77,0.00,,,0.00,Wunderground v.1.15,2013-04-12 23:00:00,
2013-04-12 18:05:00,42.2,35.8,29.87,WSW,245,4.0,4.0,78,0.00,,,0.00,Wunderground v.1.15,2013-04-12 23:05:00,
2013-04-12 18:10:00,42.2,35.5,29.87,WSW,250,4.0,5.0,77,0.00,,,0.00,Wunderground v.1.15,2013-04-12 23:10:00,
2013-04-12 18:15:00,42.2,35.8,29.87,NNE,18,3.0,5.0,78,0.00,,,0.00,Wunderground v.1.15,2013-04-12 23:15:00,
2013-04-12 18:20:00,42.1,36.1,29.87,WNW,287,3.0,4.0,79,0.00,,,0.00,Wunderground v.1.15,2013-04-12 23:20:00,
2013-04-12 18:25:00,42.1,35.7,29.87,West,270,3.0,4.0,78,0.00,,,0.00,Wunderground v.1.15,2013-04-12 23:25:00,
2013-04-12 18:30:00,42.2,36.2,29.87,WNW,293,3.0,3.0,79,0.00,,,0.00,Wunderground v.1.15,2013-04-12 23:30:00,
2013-04-12 18:35:00,42.1,36.1,29.87,WNW,295,3.0,4.0,79,0.00,,,0.00,Wunderground v.1.15,2013-04-12 23:35:00,
2013-04-12 18:40:00,42.0,36.0,29.87,West,260,3.0,3.0,79,0.00,,,0.00,Wunderground v.1.15,2013-04-12 23:40:00,
2013-04-12 18:45:00,42.0,36.0,29.87,WSW,250,2.0,4.0,79,0.00,,,0.00,Wunderground v.1.15,2013-04-12 23:45:00,
2013-04-12 18:50:00,42.0,36.0,29.87,West,276,2.0,3.0,79,0.00,,,0.00,Wunderground v.1.15,2013-04-12 23:50:00,
2013-04-12 18:55:00,42.0,36.3,29.88,NW,307,2.0,3.0,80,0.00,,,0.00,Wunderground v.1.15,2013-04-12 23:55:00,
2013-04-12 19:00:00,41.9,35.9,29.87,WSW,255,2.0,4.0,79,0.00,,,0.00,Wunderground v.1.15,2013-04-13 00:00:00,
2013-04-12 19:05:00,42.0,36.0,29.87,WNW,283,3.0,4.0,79,0.00,,,0.00,Wunderground v.1.15,2013-04-13 00:05:00,
2013-04-12 19:10:00,41.9,35.9,29.87,WSW,242,3.0,6.0,79,0.00,,,0.00,Wunderground v.1.15,2013-04-13 00:10:00,
2013-04-12 19:15:00,41.8,36.1,29.88,WSW,255,3.0,6.0,80,0.00,,,0.00,Wunderground v.1.15,2013-04-13 00:15:00,
2013-04-12 19:20:00,41.7,36.3,29.88,WSW,255,2.0,4.0,81,0.00,,,0.00,Wunderground v.1.15,2013-04-13 00:20:00,
2013-04-12 19:25:00,41.5,36.4,29.88,West,265,2.0,4.0,82,0.00,,,0.00,Wunderground v.1.15,2013-04-13 00:25:00,
2013-04-12 19:30:00,41.5,36.4,29.88,West,264,2.0,3.0,82,0.00,,,0.00,Wunderground v.1.15,2013-04-13 00:30:00,
2013-04-12 19:35:00,41.4,36.6,29.88,WSW,242,3.0,4.0,83,0.00,,,0.00,Wunderground v.1.15,2013-04-13 00:35:00,
2013-04-12 19:40:00,41.3,36.2,29.88,West,263,4.0,4.0,82,0.00,,,0.00,Wunderground v.1.15,2013-04-13 00:40:00,
2013-04-12 19:45:00,41.3,36.2,29.88,WSW,243,5.0,5.0,82,0.00,,,0.00,Wunderground v.1.15,2013-04-13 00:45:00,
2013-04-12 19:50:00,41.2,36.1,29.88,WSW,251,5.0,5.0,82,0.00,,,0.00,Wunderground v.1.15,2013-04-13 00:50:00,
2013-04-12 19:55:00,41.1,36.0,29.88,WSW,252,5.0,6.0,82,0.00,,,0.00,Wunderground v.1.15,2013-04-13 00:55:00,
2013-04-12 20:00:00,41.1,36.3,29.88,SW,233,4.0,5.0,83,0.00,,,0.00,Wunderground v.1.15,2013-04-13 01:00:00,
2013-04-12 20:05:00,41.1,36.0,29.88,WSW,242,5.0,6.0,82,0.00,,,0.00,Wunderground v.1.15,2013-04-13 01:05:00,
2013-04-12 20:10:00,41.1,36.0,29.88,SW,235,5.0,7.0,82,0.00,,,0.00,Wunderground v.1.15,2013-04-13 01:10:00,
2013-04-12 20:15:00,41.1,35.7,29.89,WSW,250,5.0,7.0,81,0.00,,,0.00,Wunderground v.1.15,2013-04-13 01:15:00,
2013-04-12 20:20:00,41.2,35.5,29.89,NW,314,6.0,6.0,80,0.00,,,0.00,Wunderground v.1.15,2013-04-13 01:20:00,
2013-04-12 20:25:00,41.2,35.5,29.89,WSW,241,6.0,6.0,80,0.00,,,0.00,Wunderground v.1.15,2013-04-13 01:25:00,
2013-04-12 20:30:00,41.1,35.4,29.89,SW,227,6.0,6.0,80,0.00,,,0.00,Wunderground v.1.15,2013-04-13 01:30:00,
2013-04-12 20:35:00,41.0,35.3,29.90,WSW,240,6.0,6.0,80,0.00,,,0.00,Wunderground v.1.15,2013-04-13 01:35:00,
2013-04-12 20:40:00,40.9,35.5,29.90,WSW,248,5.0,7.0,81,0.00,,,0.00,Wunderground v.1.15,2013-04-13 01:40:00,
2013-04-12 20:45:00,41.0,35.3,29.90,WSW,248,6.0,7.0,80,0.00,,,0.00,Wunderground v.1.15,2013-04-13 01:45:00,
2013-04-12 20:50:00,41.0,35.3,29.90,WSW,238,6.0,7.0,80,0.00,,,0.00,Wunderground v.1.15,2013-04-13 01:50:00,
2013-04-12 21:00:00,40.9,35.5,29.90,WSW,255,6.0,6.0,81,0.00,,,0.00,Wunderground v.1.15,2013-04-13 02:00:00,
2013-04-12 21:10:00,40.9,35.5,29.90,West,276,6.0,6.0,81,0.00,,,0.00,Wunderground v.1.15,2013-04-13 02:10:00,
2013-04-12 21:15:00,40.9,35.5,29.91,WSW,249,6.0,7.0,81,0.00,,,0.00,Wunderground v.1.15,2013-04-13 02:15:00,
2013-04-12 21:20:00,40.9,35.5,29.91,SW,235,6.0,6.0,81,0.00,,,0.00,Wunderground v.1.15,2013-04-13 02:20:00,
2013-04-12 21:25:00,40.8,35.7,29.91,SW,235,5.0,6.0,82,0.00,,,0.00,Wunderground v.1.15,2013-04-13 02:25:00,
2013-04-12 21:30:00,40.7,35.6,29.91,WSW,248,4.0,5.0,82,0.00,,,0.00,Wunderground v.1.15,2013-04-13 02:30:00,
2013-04-12 21:35:00,40.6,35.8,29.91,WSW,242,4.0,5.0,83,0.00,,,0.00,Wunderground v.1.15,2013-04-13 02:35:00,
2013-04-12 21:40:00,40.6,35.8,29.91,West,265,5.0,5.0,83,0.00,,,0.00,Wunderground v.1.15,2013-04-13 02:40:00,
2013-04-12 21:45:00,40.5,36.0,29.91,West,262,4.0,5.0,84,0.00,,,0.00,Wunderground v.1.15,2013-04-13 02:45:00,
2013-04-12 21:55:00,40.5,35.7,29.92,WSW,246,5.0,6.0,83,0.00,,,0.00,Wunderground v.1.15,2013-04-13 02:55:00,
2013-04-12 22:00:00,40.5,35.7,29.92,WSW,249,5.0,6.0,83,0.00,,,0.00,Wunderground v.1.15,2013-04-13 03:00:00,
2013-04-12 22:05:00,40.4,35.6,29.92,WSW,256,5.0,6.0,83,0.00,,,0.00,Wunderground v.1.15,2013-04-13 03:05:00,
2013-04-12 22:10:00,40.3,35.5,29.92,WSW,252,5.0,5.0,83,0.00,,,0.00,Wunderground v.1.15,2013-04-13 03:10:00,
2013-04-12 22:15:00,40.3,35.5,29.92,WSW,250,5.0,5.0,83,0.00,,,0.00,Wunderground v.1.15,2013-04-13 03:15:00,
2013-04-12 22:20:00,40.3,35.5,29.92,WNW,287,4.0,4.0,83,0.00,,,0.00,Wunderground v.1.15,2013-04-13 03:20:00,
2013-04-12 22:25:00,40.2,35.4,29.92,West,279,4.0,5.0,83,0.00,,,0.00,Wunderground v.1.15,2013-04-13 03:25:00,
2013-04-12 22:30:00,40.2,35.4,29.92,WSW,250,4.0,5.0,83,0.00,,,0.00,Wunderground v.1.15,2013-04-13 03:30:00,
2013-04-12 22:35:00,40.3,35.2,29.92,WSW,253,5.0,5.0,82,0.00,,,0.00,Wunderground v.1.15,2013-04-13 03:35:00,
2013-04-12 22:40:00,40.2,35.1,29.92,WNW,284,5.0,6.0,82,0.00,,,0.00,Wunderground v.1.15,2013-04-13 03:40:00,
2013-04-12 22:45:00,40.2,35.1,29.93,WSW,237,5.0,6.0,82,0.00,,,0.00,Wunderground v.1.15,2013-04-13 03:45:00,
2013-04-12 22:55:00,40.0,35.3,29.93,West,260,4.0,4.0,83,0.00,,,0.00,Wunderground v.1.15,2013-04-13 03:55:00,
2013-04-12 23:00:00,40.0,35.3,29.93,West,280,4.0,4.0,83,0.00,,,0.00,Wunderground v.1.15,2013-04-13 04:00:00,
2013-04-12 23:05:00,39.9,35.2,29.93,WSW,254,4.0,4.0,83,0.00,,,0.00,Wunderground v.1.15,2013-04-13 04:05:00,
2013-04-12 23:10:00,39.9,35.2,29.93,WSW,253,4.0,4.0,83,0.00,,,0.00,Wunderground v.1.15,2013-04-13 04:10:00,
2013-04-12 23:15:00,39.7,35.3,29.93,WNW,283,4.0,4.0,84,0.00,,,0.00,Wunderground v.1.15,2013-04-13 04:15:00,
2013-04-12 23:20:00,39.6,35.5,29.93,WSW,257,4.0,4.0,85,0.00,,,0.00,Wunderground v.1.15,2013-04-13 04:20:00,
2013-04-12 23:25:00,39.6,35.5,29.93,WSW,240,4.0,4.0,85,0.00,,,0.00,Wunderground v.1.15,2013-04-13 04:25:00,
2013-04-12 23:30:00,39.5,35.4,29.93,WSW,255,4.0,4.0,85,0.00,,,0.00,Wunderground v.1.15,2013-04-13 04:30:00,
2013-04-12 23:35:00,39.5,35.4,29.93,WSW,240,4.0,5.0,85,0.00,,,0.00,Wunderground v.1.15,2013-04-13 04:35:00,
2013-04-12 23:40:00,39.5,35.4,29.93,West,265,4.0,4.0,85,0.00,,,0.00,Wunderground v.1.15,2013-04-13 04:40:00,
2013-04-12 23:45:00,39.5,35.4,29.93,West,260,4.0,4.0,85,0.00,,,0.00,Wunderground v.1.15,2013-04-13 04:45:00,
2013-04-12 23:50:00,39.4,35.6,29.93,West,267,3.0,5.0,86,0.00,,,0.00,Wunderground v.1.15,2013-04-13 04:50:00,
2013-04-12 23:55:00,39.3,35.5,29.93,WSW,257,3.0,5.0,86,0.00,,,0.00,Wunderground v.1.15,2013-04-13 04:55:00,